Time,TemperatureF,DewpointF,PressureIn,WindDirection,WindDirectionDegrees,WindSpeedMPH,WindSpeedGustMPH,Humidity,HourlyPrecipIn,Conditions,Clouds,dailyrainin,SoftwareType,DateUTC
2013-07-17 11:56:00,81.3,70.8,30.13,SSE,158,6.3,6.3,70,0.00,,,0.00,WUHU216HW,2013-07-17 15:56:00,
2013-07-17 11:57:00,81.3,70.8,30.13,SSE,158,6.3,6.3,70,0.00,,,0.00,WUHU216HW,2013-07-17 15:57:00,
2013-07-17 12:02:00,81.7,70.8,30.13,South,180,5.4,7.6,69,0.00,,,0.00,WUHU216HW,2013-07-17 16:02:00,
2013-07-17 12:07:00,81.7,71.2,30.13,SE,135,4.0,7.8,70,0.00,,,0.00,WUHU216HW,2013-07-17 16:07:00,
2013-07-17 12:12:00,81.7,71.2,30.13,ESE,113,4.9,7.8,70,0.00,,,0.00,WUHU216HW,2013-07-17 16:12:00,
2013-07-17 12:17:00,81.8,71.7,30.12,SSE,158,5.4,6.9,71,0.00,,,0.00,WUHU216HW,2013-07-17 16:17:00,
2013-07-17 12:22:00,82.2,71.3,30.12,SE,135,5.4,7.8,69,0.00,,,0.00,WUHU216HW,2013-07-17 16:22:00,
2013-07-17 12:27:00,82.6,71.2,30.12,SE,135,6.3,7.8,68,0.00,,,0.00,WUHU216HW,2013-07-17 16:27:00,
2013-07-17 12:32:00,82.7,71.3,30.12,South,180,3.8,7.8,68,0.00,,,0.00,WUHU216HW,2013-07-17 16:32:00,
2013-07-17 12:37:00,82.6,71.2,30.12,SE,135,6.9,7.4,68,0.00,,,0.00,WUHU216HW,2013-07-17 16:37:00,
2013-07-17 12:42:00,82.6,71.2,30.12,SSE,158,4.5,8.1,68,0.00,,,0.00,WUHU216HW,2013-07-17 16:42:00,
2013-07-17 12:47:00,82.7,71.3,30.12,SE,135,6.3,8.1,68,0.00,,,0.00,WUHU216HW,2013-07-17 16:47:00,
2013-07-17 12:52:00,82.2,70.8,30.11,SE,135,7.6,9.6,68,0.00,,,0.00,WUHU216HW,2013-07-17 16:52:00,
2013-07-17 12:57:00,81.8,70.9,30.11,SE,135,6.3,9.6,69,0.00,,,0.00,WUHU216HW,2013-07-17 16:57:00,
2013-07-17 13:02:00,81.7,70.8,30.11,SSE,158,6.0,9.6,69,0.00,,,0.00,WUHU216HW,2013-07-17 17:02:00,
2013-07-17 13:07:00,81.7,71.2,30.11,SE,135,7.6,9.6,70,0.00,,,0.00,WUHU216HW,2013-07-17 17:07:00,
2013-07-17 13:12:00,82.2,71.2,30.11,ESE,113,4.7,8.7,69,0.00,,,0.00,WUHU216HW,2013-07-17 17:12:00,
2013-07-17 13:17:00,82.6,71.2,30.11,ESE,113,5.4,8.1,68,0.00,,,0.00,WUHU216HW,2013-07-17 17:17:00,
2013-07-17 13:22:00,82.4,71.4,30.11,SE,135,6.3,8.1,69,0.00,,,0.00,WUHU216HW,2013-07-17 17:22:00,
2013-07-17 13:27:00,82.4,71.4,30.11,SE,135,4.7,6.5,69,0.00,,,0.00,WUHU216HW,2013-07-17 17:27:00,
2013-07-17 13:32:00,82.5,71.6,30.10,SSE,158,5.1,8.1,69,0.00,,,0.00,WUHU216HW,2013-07-17 17:32:00,
2013-07-17 13:37:00,82.6,71.7,30.10,SSE,158,4.0,8.1,69,0.00,,,0.00,WUHU216HW,2013-07-17 17:37:00,
2013-07-17 13:42:00,82.6,71.7,30.10,SE,135,5.4,6.7,69,0.00,,,0.00,WUHU216HW,2013-07-17 17:42:00,
2013-07-17 13:47:00,83.2,72.2,30.09,SE,135,4.5,6.9,69,0.00,,,0.00,WUHU216HW,2013-07-17 17:47:00,
2013-07-17 13:52:00,82.3,71.4,30.10,SE,135,4.7,8.3,69,0.00,,,0.00,WUHU216HW,2013-07-17 17:52:00,
2013-07-17 13:57:00,82.6,71.6,30.09,SE,135,7.6,8.3,69,0.00,,,0.00,WUHU216HW,2013-07-17 17:57:00,
2013-07-17 14:02:00,82.8,71.8,30.09,SE,135,3.8,9.2,69,0.00,,,0.00,WUHU216HW,2013-07-17 18:02:00,
2013-07-17 14:07:00,83.0,72.0,30.09,ESE,113,7.2,9.2,69,0.00,,,0.00,WUHU216HW,2013-07-17 18:07:00,
2013-07-17 14:12:00,83.1,71.7,30.09,SSW,203,3.8,9.2,68,0.00,,,0.00,WUHU216HW,2013-07-17 18:12:00,
2013-07-17 14:17:00,83.1,72.2,30.09,ESE,113,4.3,9.2,69,0.00,,,0.00,WUHU216HW,2013-07-17 18:17:00,
2013-07-17 14:22:00,83.3,71.9,30.09,SSE,158,4.7,8.7,68,0.00,,,0.00,WUHU216HW,2013-07-17 18:22:00,
2013-07-17 14:27:00,83.4,72.0,30.08,SSE,158,8.5,8.7,68,0.00,,,0.00,WUHU216HW,2013-07-17 18:27:00,
2013-07-17 14:32:00,83.1,71.7,30.08,SE,135,6.5,9.2,68,0.00,,,0.00,WUHU216HW,2013-07-17 18:32:00,
2013-07-17 14:37:00,83.1,71.7,30.08,SSE,158,8.3,9.6,68,0.00,,,0.00,WUHU216HW,2013-07-17 18:37:00,
2013-07-17 14:42:00,82.4,71.4,30.07,SE,135,7.4,9.6,69,0.00,,,0.00,WUHU216HW,2013-07-17 18:42:00,
2013-07-17 14:47:00,82.3,71.4,30.07,ESE,113,7.8,9.6,69,0.00,,,0.00,WUHU216HW,2013-07-17 18:47:00,
2013-07-17 14:52:00,82.3,71.4,30.07,SW,225,5.4,10.5,69,0.00,,,0.00,WUHU216HW,2013-07-17 18:52:00,
2013-07-17 14:57:00,81.7,70.8,30.07,SE,135,7.6,10.5,69,0.00,,,0.00,WUHU216HW,2013-07-17 18:57:00,
2013-07-17 15:02:00,81.5,71.0,30.07,SSE,158,7.6,11.9,70,0.00,,,0.00,WUHU216HW,2013-07-17 19:02:00,
2013-07-17 15:07:00,82.3,70.9,30.07,SE,135,8.1,11.9,68,0.00,,,0.00,WUHU216HW,2013-07-17 19:07:00,
2013-07-17 15:12:00,82.2,70.9,30.06,SE,135,7.6,9.8,68,0.00,,,0.00,WUHU216HW,2013-07-17 19:12:00,
2013-07-17 15:17:00,81.4,70.9,30.06,SSE,158,7.2,11.9,70,0.00,,,0.00,WUHU216HW,2013-07-17 19:17:00,
2013-07-17 15:22:00,81.6,71.1,30.06,SSE,158,6.9,11.9,70,0.00,,,0.00,WUHU216HW,2013-07-17 19:22:00,
2013-07-17 15:27:00,82.0,71.0,30.06,ESE,113,7.6,9.2,69,0.00,,,0.00,WUHU216HW,2013-07-17 19:27:00,
2013-07-17 15:32:00,82.1,70.8,30.05,SE,135,6.5,9.2,68,0.00,,,0.00,WUHU216HW,2013-07-17 19:32:00,
2013-07-17 15:37:00,81.3,70.0,30.05,SSE,158,6.3,10.5,68,0.00,,,0.00,WUHU216HW,2013-07-17 19:37:00,
2013-07-17 15:42:00,81.5,70.1,30.05,South,180,4.0,10.5,68,0.00,,,0.00,WUHU216HW,2013-07-17 19:42:00,
2013-07-17 15:47:00,81.7,70.3,30.05,SSE,158,9.6,11.0,68,0.00,,,0.00,WUHU216HW,2013-07-17 19:47:00,
2013-07-17 15:52:00,81.8,70.5,30.05,SE,135,5.4,11.0,68,0.00,,,0.00,WUHU216HW,2013-07-17 19:52:00,
2013-07-17 15:57:00,82.0,70.2,30.04,SSE,158,8.9,9.6,67,0.00,,,0.00,WUHU216HW,2013-07-17 19:57:00,
2013-07-17 16:02:00,81.6,70.2,30.04,SE,135,8.5,11.4,68,0.00,,,0.00,WUHU216HW,2013-07-17 20:02:00,
2013-07-17 16:07:00,80.7,69.8,30.03,SE,135,8.3,11.4,69,0.00,,,0.00,WUHU216HW,2013-07-17 20:07:00,
2013-07-17 16:12:00,80.8,70.4,30.03,SE,135,7.6,12.1,70,0.00,,,0.00,WUHU216HW,2013-07-17 20:12:00,
2013-07-17 16:17:00,80.8,69.9,30.03,ESE,113,8.5,12.1,69,0.00,,,0.00,WUHU216HW,2013-07-17 20:17:00,
2013-07-17 16:22:00,80.6,69.7,30.03,SE,135,10.3,10.5,69,0.00,,,0.00,WUHU216HW,2013-07-17 20:22:00,
2013-07-17 16:27:00,80.1,69.3,30.03,SSE,158,8.9,10.3,69,0.00,,,0.00,WUHU216HW,2013-07-17 20:27:00,
2013-07-17 16:32:00,79.6,69.6,30.03,West,270,7.6,10.3,71,0.00,,,0.00,WUHU216HW,2013-07-17 20:32:00,
2013-07-17 16:37:00,79.4,69.4,30.03,SSE,158,5.1,10.3,71,0.00,,,0.00,WUHU216HW,2013-07-17 20:37:00,
2013-07-17 16:42:00,80.0,69.6,30.03,SE,135,8.9,9.8,70,0.00,,,0.00,WUHU216HW,2013-07-17 20:42:00,
2013-07-17 16:47:00,79.5,69.1,30.03,SE,135,7.6,9.8,70,0.00,,,0.00,WUHU216HW,2013-07-17 20:47:00,
2013-07-17 16:52:00,79.1,69.1,30.03,SE,135,6.5,9.2,71,0.00,,,0.00,WUHU216HW,2013-07-17 20:52:00,
2013-07-17 16:57:00,79.5,69.4,30.03,SSE,158,4.7,10.7,71,0.00,,,0.00,WUHU216HW,2013-07-17 20:57:00,
2013-07-17 17:02:00,79.8,69.4,30.02,SE,135,5.8,10.7,70,0.00,,,0.00,WUHU216HW,2013-07-17 21:02:00,
2013-07-17 17:07:00,79.8,69.4,30.02,SE,135,6.0,9.2,70,0.00,,,0.00,WUHU216HW,2013-07-17 21:07:00,
2013-07-17 17:12:00,79.8,69.3,30.02,SE,135,5.1,9.2,70,0.00,,,0.00,WUHU216HW,2013-07-17 21:12:00,
2013-07-17 17:17:00,79.8,69.4,30.02,SSE,158,7.6,8.1,70,0.00,,,0.00,WUHU216HW,2013-07-17 21:17:00,
2013-07-17 17:22:00,80.4,69.5,30.02,SSE,158,5.8,8.3,69,0.00,,,0.00,WUHU216HW,2013-07-17 21:22:00,
2013-07-17 17:27:00,80.0,69.1,30.02,SE,135,6.0,8.3,69,0.00,,,0.00,WUHU216HW,2013-07-17 21:27:00,
2013-07-17 17:32:00,79.4,69.0,30.01,SE,135,7.6,8.5,70,0.00,,,0.00,WUHU216HW,2013-07-17 21:32:00,
2013-07-17 17:37:00,79.6,69.2,30.01,SSW,203,6.9,8.5,70,0.00,,,0.00,WUHU216HW,2013-07-17 21:37:00,
2013-07-17 17:42:00,80.1,69.2,30.01,WSW,248,5.8,8.5,69,0.00,,,0.00,WUHU216HW,2013-07-17 21:42:00,
2013-07-17 17:47:00,80.2,68.9,30.01,SSE,158,8.1,8.5,68,0.00,,,0.00,WUHU216HW,2013-07-17 21:47:00,
2013-07-17 17:52:00,79.8,68.5,30.01,ESE,113,6.3,9.6,68,0.00,,,0.00,WUHU216HW,2013-07-17 21:52:00,
2013-07-17 17:57:00,79.9,68.7,30.00,SE,135,6.0,9.6,68,0.00,,,0.00,WUHU216HW,2013-07-17 21:57:00,
2013-07-17 18:02:00,80.1,68.8,30.00,South,180,6.0,8.1,68,0.00,,,0.00,WUHU216HW,2013-07-17 22:02:00,
2013-07-17 18:07:00,79.9,68.2,30.00,ESE,113,6.3,8.1,67,0.00,,,0.00,WUHU216HW,2013-07-17 22:07:00,
2013-07-17 18:12:00,79.1,68.3,30.00,ESE,113,5.8,8.9,69,0.00,,,0.00,WUHU216HW,2013-07-17 22:12:00,
2013-07-17 18:17:00,78.9,68.5,29.99,SE,135,6.9,9.4,70,0.00,,,0.00,WUHU216HW,2013-07-17 22:17:00,
2013-07-17 18:22:00,78.7,68.3,29.99,South,180,4.7,9.4,70,0.00,,,0.00,WUHU216HW,2013-07-17 22:22:00,
2013-07-17 18:27:00,78.8,68.4,29.99,SE,135,8.1,8.1,70,0.00,,,0.00,WUHU216HW,2013-07-17 22:27:00,
2013-07-17 18:32:00,78.6,68.2,29.98,SSE,158,6.5,8.1,70,0.00,,,0.00,WUHU216HW,2013-07-17 22:32:00,
2013-07-17 18:37:00,78.4,68.4,29.98,SE,135,4.7,8.1,71,0.00,,,0.00,WUHU216HW,2013-07-17 22:37:00,
2013-07-17 18:42:00,78.3,68.4,29.98,ENE,68,2.7,6.9,71,0.00,,,0.00,WUHU216HW,2013-07-17 22:42:00,
2013-07-17 18:47:00,79.2,68.8,29.98,SE,135,5.1,6.9,70,0.00,,,0.00,WUHU216HW,2013-07-17 22:47:00,
2013-07-17 18:52:00,79.4,68.5,29.98,South,180,4.3,6.3,69,0.00,,,0.00,WUHU216HW,2013-07-17 22:52:00,
2013-07-17 18:57:00,79.7,68.9,29.98,SE,135,4.0,6.3,69,0.00,,,0.00,WUHU216HW,2013-07-17 22:57:00,
2013-07-17 19:02:00,79.5,68.7,29.98,South,180,2.7,6.3,69,0.00,,,0.00,WUHU216HW,2013-07-17 23:02:00,
2013-07-17 19:07:00,79.1,67.9,29.98,South,180,4.5,5.8,68,0.00,,,0.00,WUHU216HW,2013-07-17 23:07:00,
2013-07-17 19:12:00,78.4,68.4,29.98,South,180,3.8,5.4,71,0.00,,,0.00,WUHU216HW,2013-07-17 23:12:00,
2013-07-17 19:17:00,78.2,68.6,29.98,SSE,158,2.0,5.4,72,0.00,,,0.00,WUHU216HW,2013-07-17 23:17:00,
2013-07-17 19:22:00,79.0,69.4,29.98,SSE,158,2.0,4.7,72,0.00,,,0.00,WUHU216HW,2013-07-17 23:22:00,
2013-07-17 19:27:00,80.2,71.0,29.98,SE,135,3.4,5.1,73,0.00,,,0.00,WUHU216HW,2013-07-17 23:27:00,
2013-07-17 19:32:00,80.2,70.2,29.98,SE,135,3.6,5.1,71,0.00,,,0.00,WUHU216HW,2013-07-17 23:32:00,
2013-07-17 19:37:00,79.5,69.5,29.99,SE,135,1.8,4.3,71,0.00,,,0.00,WUHU216HW,2013-07-17 23:37:00,
2013-07-17 19:42:00,79.3,69.7,29.99,South,180,1.6,4.3,72,0.00,,,0.00,WUHU216HW,2013-07-17 23:42:00,
2013-07-17 19:47:00,79.3,69.7,29.99,SE,135,1.1,2.5,72,0.00,,,0.00,WUHU216HW,2013-07-17 23:47:00,
2013-07-17 19:52:00,79.3,69.7,29.98,SSE,158,2.2,2.5,72,0.00,,,0.00,WUHU216HW,2013-07-17 23:52:00,
2013-07-17 19:57:00,79.7,70.9,29.98,SE,135,2.5,3.4,74,0.00,,,0.00,WUHU216HW,2013-07-17 23:57:00,
2013-07-17 20:02:00,80.2,71.7,29.99,South,180,2.7,3.8,75,0.00,,,0.00,WUHU216HW,2013-07-18 00:02:00,
2013-07-17 20:07:00,80.6,71.7,29.98,SW,225,2.7,3.8,74,0.00,,,0.00,WUHU216HW,2013-07-18 00:07:00,
2013-07-17 20:12:00,80.8,71.5,29.99,SSW,203,1.1,3.6,73,0.00,,,0.00,WUHU216HW,2013-07-18 00:12:00,
2013-07-17 20:17:00,80.8,71.5,29.98,SSW,203,2.7,3.6,73,0.00,,,0.00,WUHU216HW,2013-07-18 00:17:00,
2013-07-17 20:22:00,80.9,71.2,29.98,SSW,203,1.8,3.6,72,0.00,,,0.00,WUHU216HW,2013-07-18 00:22:00,
2013-07-17 20:27:00,80.9,71.6,29.98,SSW,203,3.4,4.0,73,0.00,,,0.00,WUHU216HW,2013-07-18 00:27:00,
2013-07-17 20:32:00,80.8,71.5,29.98,South,180,3.1,4.9,73,0.00,,,0.00,WUHU216HW,2013-07-18 00:32:00,
2013-07-17 20:37:00,80.8,71.9,29.98,SE,135,3.4,4.9,74,0.00,,,0.00,WUHU216HW,2013-07-18 00:37:00,
2013-07-17 20:42:00,80.6,71.7,29.98,SSE,158,4.7,4.9,74,0.00,,,0.00,WUHU216HW,2013-07-18 00:42:00,
2013-07-17 20:46:00,80.6,71.7,29.98,SSE,158,2.9,2.9,74,0.00,,,0.00,WUHU216HW,2013-07-18 00:46:00,
2013-07-17 20:47:00,80.6,71.7,29.98,SSE,158,2.9,4.9,74,0.00,,,0.00,WUHU216HW,2013-07-18 00:47:00,
2013-07-17 20:52:00,80.6,71.7,29.98,SSE,158,2.9,4.7,74,0.00,,,0.00,WUHU216HW,2013-07-18 00:52:00,
2013-07-17 21:00:00,80.4,71.5,29.98,South,180,3.6,3.6,74,0.00,,,0.00,WUHU216HW,2013-07-18 01:00:00,
2013-07-17 21:05:00,80.4,71.5,29.98,South,180,3.6,3.6,74,0.00,,,0.00,WUHU216HW,2013-07-18 01:05:00,
2013-07-17 21:30:00,80.6,70.9,29.99,South,180,4.7,4.7,72,0.00,,,0.00,WUHU216HW,2013-07-18 01:30:00,
2013-07-17 21:35:00,80.6,70.9,29.99,South,180,4.7,4.7,72,0.00,,,0.00,WUHU216HW,2013-07-18 01:35:00,
2013-07-17 22:00:00,80.0,70.8,29.99,SSW,203,1.8,1.8,73,0.00,,,0.00,WUHU216HW,2013-07-18 02:00:00,
2013-07-17 22:05:00,80.0,70.8,29.99,SSW,203,1.8,1.8,73,0.00,,,0.00,WUHU216HW,2013-07-18 02:05:00,
2013-07-17 22:30:00,79.7,71.2,30.00,WSW,248,1.6,1.6,75,0.00,,,0.00,WUHU216HW,2013-07-18 02:30:00,
2013-07-17 22:35:00,79.7,71.2,30.00,WSW,248,1.6,1.6,75,0.00,,,0.00,WUHU216HW,2013-07-18 02:35:00,
2013-07-17 23:00:00,79.9,71.8,29.98,South,180,3.1,3.1,76,0.00,,,0.00,WUHU216HW,2013-07-18 03:00:00,
2013-07-17 23:05:00,79.9,71.8,29.98,South,180,3.1,3.1,76,0.00,,,0.00,WUHU216HW,2013-07-18 03:05:00,
2013-07-17 23:30:00,78.4,68.4,29.98,NNW,338,3.6,3.6,71,0.00,,,0.00,WUHU216HW,2013-07-18 03:30:00,
2013-07-17 23:35:00,78.4,68.4,29.98,NNW,338,3.6,3.6,71,0.00,,,0.00,WUHU216HW,2013-07-18 03:35:00,